Location: Tierz
(42.1336°N, 0.3549°W)
Time: 11:04:07
(UTC+00:00)

Cosmos 2082 - Pass Details

Date: 29 October 2020
Orbit: 832 x 857 km, 71.0° (Epoch: 29 November)

Event Time Altitude Azimuth Distance (km) Brightness Sun altitude
Rises 18:11:45 0° 339° (NNW) 3,436 7.1 -14.1°
Reaches altitude 10° 18:14:17 10° 344° (NNW) 2,497 6.3 -14.6°
Maximum altitude 18:19:54 53° 62° (ENE) 1,042 3.8 -15.6°
Drops below altitude 10° 18:25:28 10° 139° (SE) 2,482 5.8 -16.6°
Enters shadow 18:25:46 - 139° (SE) 2,587 5.9 -16.7°
